Regional Weather Roundup
Issued by NWS

Home | Current Version | Previous Version | Text Only | Print | Product List | Glossary On
Versions: 1 2 3 4 5 6 7 8 9 10 11 12 13 14 15 16 17 18 19 20 21 22 23 24 25 26 27 28 29 30 31 32 33 34 35 36 37 38 39 40 41 42 43 44 45 46 47 48 49 50
000
ASUS43 KMPX 301701
RWRMN
WEATHER ROUNDUP FOR MINNESOTA
NATIONAL WEATHER SERVICE TWIN CITIES/CHANHASSEN MN
1200 PM CDT FRI SEP 30 2016


NOTE: "FAIR" INDICATES FEW OR NO CLOUDS BELOW 12,000 FEET WITH NO
SIGNIFICANT WEATHER AND/OR OBSTRUCTIONS TO VISIBILITY. N/A MEANS
CURRENT SKY AND/OR WEATHER CONDITIONS ARE NOT AVAILABLE.

MNZ060>063-068>070-301800-
   Twin Cities Metro

CITY           SKY/WX    TMP DP  RH WIND       PRES   REMARKS
TWIN CITIES    SUNNY     63  53  70 N8        30.35F
ST PAUL        SUNNY     64  53  67 N8        30.35F
CRYSTAL        SUNNY     60  50  69 NW8       30.35F
BLAINE         MOSUNNY   61  55  82 N7        30.36F
LAKEVILLE      SUNNY     64  54  68 NE6       30.33F
EDEN PRAIRIE   SUNNY     63  53  70 N6        30.34F
LAKEVILLE      SUNNY     64  54  68 NE6       30.33F
SOUTH ST PAUL  SUNNY     65  51  58 N7        30.34F
LAKE ELMO      FAIR      64  54  68 N6        30.36S
$$
MNZ001>005-007-008-013>017-022>024-027-028-301800-
   Northwest Minnesota

CITY           SKY/WX    TMP DP  RH WIND       PRES   REMARKS
BEMIDJI        CLOUDY    52  52  98 SE7       30.38F
HALLOCK        SUNNY     63  54  72 S15       30.29F
ROSEAU         MOSUNNY   61  54  77 S9        30.34F HAZE
WARROAD        MOSUNNY   63  54  72 S9        30.35F
THIEF RVR FALL MOSUNNY   57  51  80 SE13      30.34F
CROOKSTON      SUNNY     63  52  67 S14       30.31F
FOSSTON        CLOUDY    59  54  82 SE5       30.36S
DETROIT LAKES  CLOUDY    54  50  87 SE12      30.36F
MOORHEAD       SUNNY     64  52  63 SE13      30.32F
PARK RAPIDS    CLOUDY    56  50  80 SE7       30.37F
MAHNOMEN       FAIR      58  51  78 SE6       30.35F
$$
MNZ006-009>011-018-025>026-301800-
   North Central Minnesota

CITY           SKY/WX    TMP DP  RH WIND       PRES   REMARKS
BAUDETTE       CLOUDY    50  46  86 SE13      30.39F
FLAG ISLAND    CLOUDY    57  50  77 SE5       30.35F
INTL FALLS     CLOUDY    50  49  96 SE6       30.42F
WASKISH        CLOUDY    52  52 100 SE8       30.39F
BIG FORK       CLOUDY    54  52  94 SE6       30.42S
GRAND RAPIDS   CLOUDY    53  50  89 VRB6      30.43F
ORR            CLOUDY    52  48  87 CALM      30.41F
COOK           PTSUNNY   55  50  82 S3        30.43F
WALKER         CLOUDY    53  50  90 SE5       30.39F
$$
MNZ012-019>021-037-301800-
   Northeast Minnesota

CITY           SKY/WX    TMP DP  RH WIND       PRES   REMARKS
DULUTH         CLOUDY    55  50  83 E8        30.42F
ELY            SUNNY     59  48  67 CALM      30.43F
HIBBING        PTSUNNY   52  48  86 SE6       30.42F
EVELETH        MOSUNNY   58  49  74 CALM      30.43F
DULUTH HARBOR  CLOUDY    55  52  88 NE16      30.44S
TWO HARBORS    CLOUDY    61  54  77 E10       30.42S
SILVER BAY     CLOUDY    57  54  88 E9        30.43S
GRAND MARAIS     N/A     58  53  84 E13       30.44F
G MARAIS ARPRT SUNNY     61  48  63 SE7       30.45F
$$
MNZ029>031-032-039>041-046>048-054>057-064-301800-
   West Central Minnesota

CITY           SKY/WX    TMP DP  RH WIND       PRES   REMARKS
FERGUS FALLS   MOSUNNY   61  54  77 SE9       30.36F
MORRIS         CLOUDY    61  54  77 SE9       30.34S
ALEXANDRIA     CLOUDY    53  53 100 E9        30.38S
ELBOW LAKE     FAIR      62  54  75 SE5       30.34F
WADENA         CLOUDY    52  52 100 SE6       30.37F
GLENWOOD       CLOUDY    55  54  94 E6        30.37S
BENSON         MOSUNNY   63  54  72 SE6       30.34F
ORTONVILLE     MOSUNNY   55  54  94 CALM      30.32F
MADISON        SUNNY     64  55  72 SE3       30.32F
WILLMAR        FAIR      63  55  77 SE7       30.37S
$$
MNZ033>034-036-042>043-049>051-058-059-301800-
   Central Minnesota

CITY           SKY/WX    TMP DP  RH WIND       PRES   REMARKS
ST CLOUD       CLOUDY    55  53  93 VRB5      30.38F
SAUK CENTRE    CLOUDY    53  52  96 E7        30.38S FOG
PAYNESVILLE    CLOUDY    54  53  97 E5        30.38F
AITKIN         PTSUNNY   57  48  72 SE6       30.39F
PINE RIVER     CLOUDY    54  50  87 E6        30.42S
BRAINERD       PTSUNNY   57  50  77 NE5       30.40F
STAPLES        CLOUDY    52  52 100 SE8       30.39S
LONG PRAIRIE   CLOUDY    52  52 100 NE6       30.39S FOG
LITTLE FALLS   CLOUDY    52  50  93 E5        30.39F
LITCHFIELD     PTSUNNY   57  55  94 N3        30.37F
BUFFALO        CLOUDY    56  53  89 N6        30.38F
MAPLE LAKE     CLOUDY    55  55  99 CALM      30.38F
HUTCHINSON     MOSUNNY   59  55  88 N5        30.36F
$$
MNZ037-044-045-052-053-301800-
   East Central Minnesota

CITY           SKY/WX    TMP DP  RH WIND       PRES   REMARKS
PRINCETON      MOSUNNY   57  54  88 N6        30.38F
MORA           PTSUNNY   55  50  82 N5        30.40F
CAMBRIDGE      MOSUNNY   59  48  67 N5        30.36F
MOOSE LAKE     SUNNY     59  50  72 NE8       30.38F
HINCKLEY       FAIR      59  52  77 N5        30.39F
CLOQUET        MOSUNNY   55  48  76 E7        30.42S
MCGREGOR       PTSUNNY   55  50  82 NE3       30.41F
$$
MNZ071>073-080-081-089-090-097-098-301800-
   Southwest Minnesota

CITY           SKY/WX    TMP DP  RH WIND       PRES   REMARKS
MONTEVIDEO     MOSUNNY   63  55  77 S5        30.35F
GRANITE FALLS  SUNNY     60  55  81 E5        30.36F
CANBY          CLOUDY    67  53  61 SE3       30.33F
MARSHALL       SUNNY     60  53  77 E7        30.34F
REDWOOD FALLS  SUNNY     61  53  75 VRB3      30.35S
OLIVIA         SUNNY     61  54  77 E6        30.35S
PIPESTONE      SUNNY     66  48  52 S5        30.32F
WINDOM         SUNNY     66  52  59 SE6       30.33F
WORTHINGTON    SUNNY     67  50  54 E12       30.33F
JACKSON        SUNNY     68  46  45 E10       30.33F
TRACY          SUNNY     64  55  72 E6        30.34F
$$
MNZ065>067-074>077-082>085-091>093-301800-
   South Central Minnesota

CITY           SKY/WX    TMP DP  RH WIND       PRES   REMARKS
MANKATO        SUNNY     65  54  67 VRB7      30.33F
NEW ULM        SUNNY     63  55  77 NE3       30.33F
ST JAMES       SUNNY     64  54  68 CALM      30.34F
FAIRMONT       SUNNY     68  50  52 VRB7      30.32F
GLENCOE        PTSUNNY   56  56 100 N6        30.35F
FARIBAULT      SUNNY     66  54  63 N7        30.33F
OWATONNA       SUNNY     66  52  59 N12       30.31F
WASECA         SUNNY     63  52  67 N8        30.33F
ALBERT LEA     SUNNY     66  50  55 NE10G17   30.30F
$$
MNZ078>079-086>088-094>096-301800-
   Southeast Minnesota

CITY           SKY/WX    TMP DP  RH WIND       PRES   REMARKS
ROCHESTER      SUNNY     66  55  67 N12       30.31F
RED WING       SUNNY     70  50  49 E8        30.30F
STANTON        SUNNY     67  51  57 N9        30.31F
DODGE CENTER   SUNNY     66  50  55 NE13      30.30F
WINONA         SUNNY     64  52  63 NE6       30.29F
AUSTIN         SUNNY     66  52  59 NE10G17   30.29F
PRESTON        PTSUNNY   62  53  73 NE12      30.29F
$$
ABBREVIATIONS USED IN REMARKS
   TC - TEMPERATURES IN CELSIUS
  WCI - WIND CHILL INDEX
   HX - HEAT INDEX
  VSB - VISIBILITY
$$




USA.gov is the U.S. government's official web portal to all federal, state and local government web resources and services.